owner,sensor,date,latitude,longitude,vertical_datum,sea_water_practical_salinity,qcFlag 
DISL,ioos:station:DISL:BSCA:1,2017-01-01T06:30:00Z,30.3288,-87.8293,2.328,25.19,1111122 
DISL,ioos:station:DISL:BSCA:1,2017-01-01T07:00:00Z,30.3288,-87.8293,2.386,25.15,1111122 
DISL,ioos:station:DISL:BSCA:1,2017-01-01T07:30:00Z,30.3288,-87.8293,2.368,25.17,1111122 
DISL,ioos:station:DISL:BSCA:1,2017-01-01T08:00:00Z,30.3288,-87.8293,2.408,25.14,1111122 
DISL,ioos:station:DISL:BSCA:1,2017-01-01T08:30:00Z,30.3288,-87.8293,2.329,25.09,1111122 
DISL,ioos:station:DISL:BSCA:1,2017-01-01T09:00:00Z,30.3288,-87.8293,2.328,25.06,1111122 
DISL,ioos:station:DISL:BSCA:1,2017-01-01T09:30:00Z,30.3288,-87.8293,2.353,25.09,1111122 
DISL,ioos:station:DISL:BSCA:1,2017-01-01T10:00:00Z,30.3288,-87.8293,2.265,25.11,1111122 
DISL,ioos:station:DISL:BSCA:1,2017-01-01T10:30:00Z,30.3288,-87.8293,2.298,25.1,1111122 
DISL,ioos:station:DISL:BSCA:1,2017-01-01T11:00:00Z,30.3288,-87.8293,2.25,25.08,1111122 
DISL,ioos:station:DISL:BSCA:1,2017-01-01T11:30:00Z,30.3288,-87.8293,2.237,25.09,1111122 
DISL,ioos:station:DISL:BSCA:1,2017-01-01T12:00:00Z,30.3288,-87.8293,2.2,25.06,1111122 
DISL,ioos:station:DISL:BSCA:1,2017-01-01T12:30:00Z,30.3288,-87.8293,2.085,25.02,1111122 
DISL,ioos:station:DISL:BSCA:1,2017-01-01T13:00:00Z,30.3288,-87.8293,2.051,25.01,1111122 
DISL,ioos:station:DISL:BSCA:1,2017-01-01T13:30:00Z,30.3288,-87.8293,1.995,24.97,1111122 
DISL,ioos:station:DISL:BSCA:1,2017-01-01T14:00:00Z,30.3288,-87.8293,1.992,24.97,1111122 
DISL,ioos:station:DISL:BSCA:1,2017-01-01T14:30:00Z,30.3288,-87.8293,1.986,24.95,1111122 
DISL,ioos:station:DISL:BSCA:1,2017-01-01T15:00:00Z,30.3288,-87.8293,1.976,24.95,1111122 
DISL,ioos:station:DISL:BSCA:1,2017-01-01T15:30:00Z,30.3288,-87.8293,1.976,24.93,1111122 
DISL,ioos:station:DISL:BSCA:1,2017-01-01T16:00:00Z,30.3288,-87.8293,1.958,24.91,1111122 
DISL,ioos:station:DISL:BSCA:1,2017-01-01T16:30:00Z,30.3288,-87.8293,1.946,24.93,1111122 
DISL,ioos:station:DISL:BSCA:1,2017-01-01T17:00:00Z,30.3288,-87.8293,1.956,24.92,1111122 
DISL,ioos:station:DISL:BSCA:1,2017-01-01T17:30:00Z,30.3288,-87.8293,1.968,24.57,1111122 
DISL,ioos:station:DISL:BSCA:1,2017-01-01T18:00:00Z,30.3288,-87.8293,1.953,24.68,1111122 
DISL,ioos:station:DISL:BSCA:1,2017-01-01T18:30:00Z,30.3288,-87.8293,1.995,24.56,1111122 
DISL,ioos:station:DISL:BSCA:1,2017-01-01T19:00:00Z,30.3288,-87.8293,2.02,24.65,1111122 
DISL,ioos:station:DISL:BSCA:1,2017-01-01T19:30:00Z,30.3288,-87.8293,2.048,24.83,1111122 
DISL,ioos:station:DISL:BSCA:1,2017-01-01T20:00:00Z,30.3288,-87.8293,2.093,24.75,1111122 
DISL,ioos:station:DISL:BSCA:1,2017-01-01T20:30:00Z,30.3288,-87.8293,2.126,24.61,1111122 
DISL,ioos:station:DISL:BSCA:1,2017-01-01T21:00:00Z,30.3288,-87.8293,2.149,24.57,1111122 
DISL,ioos:station:DISL:BSCA:1,2017-01-01T21:30:00Z,30.3288,-87.8293,2.163,24.59,1111122 
DISL,ioos:station:DISL:BSCA:1,2017-01-01T22:00:00Z,30.3288,-87.8293,2.197,24.59,1111122 
DISL,ioos:station:DISL:BSCA:1,2017-01-01T22:30:00Z,30.3288,-87.8293,2.224,24.59,1111122 
DISL,ioos:station:DISL:BSCA:1,2017-01-01T23:00:00Z,30.3288,-87.8293,2.25,24.59,1111122 
DISL,ioos:station:DISL:BSCA:1,2017-01-01T23:30:00Z,30.3288,-87.8293,2.265,24.58,1111122 
DISL,ioos:station:DISL:BSCA:1,2017-01-02T00:00:00Z,30.3288,-87.8293,2.291,24.58,1111122 
DISL,ioos:station:DISL:BSCA:1,2017-01-02T00:30:00Z,30.3288,-87.8293,2.318,24.52,1111122 
DISL,ioos:station:DISL:BSCA:1,2017-01-02T01:00:00Z,30.3288,-87.8293,2.314,24.59,1111122 
DISL,ioos:station:DISL:BSCA:1,2017-01-02T01:30:00Z,30.3288,-87.8293,2.342,24.6,1111122 
DISL,ioos:station:DISL:BSCA:1,2017-01-02T02:00:00Z,30.3288,-87.8293,2.364,24.6,1111122 
DISL,ioos:station:DISL:BSCA:1,2017-01-02T02:30:00Z,30.3288,-87.8293,2.396,24.59,1111122 
DISL,ioos:station:DISL:BSCA:1,2017-01-02T03:00:00Z,30.3288,-87.8293,2.427,24.6,1111122 
DISL,ioos:station:DISL:BSCA:1,2017-01-02T03:30:00Z,30.3288,-87.8293,2.49,24.59,1111122 
DISL,ioos:station:DISL:BSCA:1,2017-01-02T04:00:00Z,30.3288,-87.8293,2.518,24.58,1111122 
DISL,ioos:station:DISL:BSCA:1,2017-01-02T04:30:00Z,30.3288,-87.8293,2.53,24.59,1111122 
DISL,ioos:station:DISL:BSCA:1,2017-01-02T05:00:00Z,30.3288,-87.8293,2.507,24.6,1111122 
DISL,ioos:station:DISL:BSCA:1,2017-01-02T05:30:00Z,30.3288,-87.8293,2.475,24.61,1111122 
DISL,ioos:station:DISL:BSCA:1,2017-01-02T06:00:00Z,30.3288,-87.8293,2.443,24.67,1111122 
DISL,ioos:station:DISL:BSCA:1,2017-01-02T06:30:00Z,30.3288,-87.8293,2.396,24.67,1111122 
DISL,ioos:station:DISL:BSCA:1,2017-01-02T07:00:00Z,30.3288,-87.8293,2.359,24.65,1111122 
DISL,ioos:station:DISL:BSCA:1,2017-01-02T07:30:00Z,30.3288,-87.8293,2.336,24.65,1111122 
DISL,ioos:station:DISL:BSCA:1,2017-01-02T08:00:00Z,30.3288,-87.8293,2.302,24.64,1111122 
DISL,ioos:station:DISL:BSCA:1,2017-01-02T08:30:00Z,30.3288,-87.8293,2.302,24.64,1111122 
DISL,ioos:station:DISL:BSCA:1,2017-01-02T09:00:00Z,30.3288,-87.8293,2.284,24.64,1111122 
DISL,ioos:station:DISL:BSCA:1,2017-01-02T09:30:00Z,30.3288,-87.8293,2.261,24.64,1111122 
DISL,ioos:station:DISL:BSCA:1,2017-01-02T10:00:00Z,30.3288,-87.8293,2.234,24.63,1111122 
DISL,ioos:station:DISL:BSCA:1,2017-01-02T10:30:00Z,30.3288,-87.8293,2.198,24.47,1111122 
DISL,ioos:station:DISL:BSCA:1,2017-01-02T11:00:00Z,30.3288,-87.8293,2.162,24.48,1111122 
DISL,ioos:station:DISL:BSCA:1,2017-01-02T11:30:00Z,30.3288,-87.8293,2.127,24.46,1111122 
DISL,ioos:station:DISL:BSCA:1,2017-01-02T12:00:00Z,30.3288,-87.8293,2.089,24.43,1111122 
DISL,ioos:station:DISL:BSCA:1,2017-01-02T12:30:00Z,30.3288,-87.8293,2.048,24.45,1111122 
DISL,ioos:station:DISL:BSCA:1,2017-01-02T13:00:00Z,30.3288,-87.8293,2.034,24.45,1111122 
DISL,ioos:station:DISL:BSCA:1,2017-01-02T13:30:00Z,30.3288,-87.8293,2.022,24.46,1111122 
DISL,ioos:station:DISL:BSCA:1,2017-01-02T14:00:00Z,30.3288,-87.8293,2.001,24.45,1111122 
DISL,ioos:station:DISL:BSCA:1,2017-01-02T14:30:00Z,30.3288,-87.8293,1.972,24.42,1111122 
DISL,ioos:station:DISL:BSCA:1,2017-01-02T15:00:00Z,30.3288,-87.8293,1.949,24.4,1111122 
DISL,ioos:station:DISL:BSCA:1,2017-01-02T15:30:00Z,30.3288,-87.8293,1.91,24.4,1111122 
DISL,ioos:station:DISL:BSCA:1,2017-01-02T16:00:00Z,30.3288,-87.8293,1.91,24.38,1111122 
DISL,ioos:station:DISL:BSCA:1,2017-01-02T16:30:00Z,30.3288,-87.8293,1.885,24.37,1111122 
DISL,ioos:station:DISL:BSCA:1,2017-01-02T17:00:00Z,30.3288,-87.8293,1.881,24.37,1111122 
DISL,ioos:station:DISL:BSCA:1,2017-01-02T17:30:00Z,30.3288,-87.8293,1.878,24.36,1111122 
DISL,ioos:station:DISL:BSCA:1,2017-01-02T18:00:00Z,30.3288,-87.8293,1.903,24.35,1111122 
DISL,ioos:station:DISL:BSCA:1,2017-01-02T18:30:00Z,30.3288,-87.8293,1.925,24.35,1111122 
DISL,ioos:station:DISL:BSCA:1,2017-01-02T19:00:00Z,30.3288,-87.8293,1.907,24.35,1111122 
DISL,ioos:station:DISL:BSCA:1,2017-01-02T19:30:00Z,30.3288,-87.8293,1.981,24.36,1111122 
DISL,ioos:station:DISL:BSCA:1,2017-01-02T20:00:00Z,30.3288,-87.8293,2.024,24.36,1111122 
DISL,ioos:station:DISL:BSCA:1,2017-01-02T20:30:00Z,30.3288,-87.8293,2.059,24.36,1111122 
DISL,ioos:station:DISL:BSCA:1,2017-01-02T21:00:00Z,30.3288,-87.8293,2.094,24.24,1111122 
DISL,ioos:station:DISL:BSCA:1,2017-01-02T21:30:00Z,30.3288,-87.8293,2.128,24.25,1111122 
DISL,ioos:station:DISL:BSCA:1,2017-01-02T22:00:00Z,30.3288,-87.8293,2.112,24.25,1111122 
DISL,ioos:station:DISL:BSCA:1,2017-01-02T22:30:00Z,30.3288,-87.8293,2.191,24.23,1111122 
DISL,ioos:station:DISL:BSCA:1,2017-01-02T23:00:00Z,30.3288,-87.8293,2.218,24.25,1111122 
DISL,ioos:station:DISL:BSCA:1,2017-01-02T23:30:00Z,30.3288,-87.8293,2.258,24.24,1111122 
DISL,ioos:station:DISL:BSCA:1,2017-01-03T00:00:00Z,30.3288,-87.8293,2.406,24.05,1111122 
DISL,ioos:station:DISL:BSCA:1,2017-01-03T00:30:00Z,30.3288,-87.8293,2.395,23.92,1111122 
DISL,ioos:station:DISL:BSCA:1,2017-01-03T01:00:00Z,30.3288,-87.8293,2.454,23.91,1111122 
DISL,ioos:station:DISL:BSCA:1,2017-01-03T01:30:00Z,30.3288,-87.8293,2.293,23.95,1111122 
DISL,ioos:station:DISL:BSCA:1,2017-01-03T02:00:00Z,30.3288,-87.8293,2.268,23.91,1111122 
DISL,ioos:station:DISL:BSCA:1,2017-01-03T02:30:00Z,30.3288,-87.8293,2.255,23.96,1111122 
DISL,ioos:station:DISL:BSCA:1,2017-01-03T03:00:00Z,30.3288,-87.8293,2.172,23.94,1111122 
DISL,ioos:station:DISL:BSCA:1,2017-01-03T03:30:00Z,30.3288,-87.8293,2.184,23.84,1111122 
DISL,ioos:station:DISL:BSCA:1,2017-01-03T04:00:00Z,30.3288,-87.8293,2.216,23.83,1111122 
DISL,ioos:station:DISL:BSCA:1,2017-01-03T04:30:00Z,30.3288,-87.8293,2.267,23.86,1111122 
DISL,ioos:station:DISL:BSCA:1,2017-01-03T05:00:00Z,30.3288,-87.8293,2.373,23.86,1111122 
DISL,ioos:station:DISL:BSCA:1,2017-01-03T05:30:00Z,30.3288,-87.8293,2.339,23.78,1111122 
DISL,ioos:station:DISL:BSCA:1,2017-01-03T06:00:00Z,30.3288,-87.8293,2.348,23.41,1111122 
DISL,ioos:station:DISL:BSCA:1,2017-01-03T06:30:00Z,30.3288,-87.8293,2.269,23.47,1111122 
DISL,ioos:station:DISL:BSCA:1,2017-01-03T07:00:00Z,30.3288,-87.8293,2.372,23.45,1111122 
DISL,ioos:station:DISL:BSCA:1,2017-01-03T07:30:00Z,30.3288,-87.8293,2.409,23.49,1111122 
DISL,ioos:station:DISL:BSCA:1,2017-01-03T08:00:00Z,30.3288,-87.8293,2.389,23.52,1111122 
DISL,ioos:station:DISL:BSCA:1,2017-01-03T08:30:00Z,30.3288,-87.8293,2.346,23.49,1111122 
DISL,ioos:station:DISL:BSCA:1,2017-01-03T09:00:00Z,30.3288,-87.8293,2.312,23.62,1111122 
DISL,ioos:station:DISL:BSCA:1,2017-01-03T09:30:00Z,30.3288,-87.8293,2.29,23.62,1111122 
DISL,ioos:station:DISL:BSCA:1,2017-01-03T10:00:00Z,30.3288,-87.8293,2.259,23.62,1111122 
DISL,ioos:station:DISL:BSCA:1,2017-01-03T10:30:00Z,30.3288,-87.8293,2.245,23.62,1111122 
DISL,ioos:station:DISL:BSCA:1,2017-01-03T11:00:00Z,30.3288,-87.8293,2.197,23.61,1111122 
DISL,ioos:station:DISL:BSCA:1,2017-01-03T11:30:00Z,30.3288,-87.8293,2.16,23.6,1111122 
DISL,ioos:station:DISL:BSCA:1,2017-01-03T12:00:00Z,30.3288,-87.8293,2.121,23.54,1111122 
DISL,ioos:station:DISL:BSCA:1,2017-01-03T12:30:00Z,30.3288,-87.8293,2.092,23.49,1111122 
DISL,ioos:station:DISL:BSCA:1,2017-01-03T13:00:00Z,30.3288,-87.8293,2.058,23.48,1111122 
DISL,ioos:station:DISL:BSCA:1,2017-01-03T13:30:00Z,30.3288,-87.8293,2.036,23.46,1111122 
DISL,ioos:station:DISL:BSCA:1,2017-01-03T14:00:00Z,30.3288,-87.8293,2.006,23.29,1111122 
DISL,ioos:station:DISL:BSCA:1,2017-01-03T14:30:00Z,30.3288,-87.8293,1.982,23.37,1111122 
DISL,ioos:station:DISL:BSCA:1,2017-01-03T15:00:00Z,30.3288,-87.8293,1.964,23.18,1111122 
DISL,ioos:station:DISL:BSCA:1,2017-01-03T15:30:00Z,30.3288,-87.8293,1.963,23.46,1111122 
DISL,ioos:station:DISL:BSCA:1,2017-01-03T16:00:00Z,30.3288,-87.8293,1.946,23.42,1111122 
DISL,ioos:station:DISL:BSCA:1,2017-01-03T16:30:00Z,30.3288,-87.8293,1.952,23.47,1111122 
DISL,ioos:station:DISL:BSCA:1,2017-01-03T17:00:00Z,30.3288,-87.8293,1.951,23.48,1111122 
DISL,ioos:station:DISL:BSCA:1,2017-01-03T17:30:00Z,30.3288,-87.8293,1.948,23.47,1111122 
DISL,ioos:station:DISL:BSCA:1,2017-01-03T18:00:00Z,30.3288,-87.8293,1.948,23.46,1111122 
DISL,ioos:station:DISL:BSCA:1,2017-01-03T18:30:00Z,30.3288,-87.8293,1.974,23.48,1111122 
DISL,ioos:station:DISL:BSCA:1,2017-01-03T19:00:00Z,30.3288,-87.8293,1.994,23.46,1111122 
DISL,ioos:station:DISL:BSCA:1,2017-01-03T19:30:00Z,30.3288,-87.8293,2.02,23.47,1111122 
DISL,ioos:station:DISL:BSCA:1,2017-01-03T20:00:00Z,30.3288,-87.8293,2.044,23.48,1111122 
DISL,ioos:station:DISL:BSCA:1,2017-01-03T20:30:00Z,30.3288,-87.8293,2.069,23.39,1111122 
DISL,ioos:station:DISL:BSCA:1,2017-01-03T21:00:00Z,30.3288,-87.8293,2.106,23.32,1111122 
DISL,ioos:station:DISL:BSCA:1,2017-01-03T21:30:00Z,30.3288,-87.8293,2.135,23.38,1111122 
DISL,ioos:station:DISL:BSCA:1,2017-01-03T22:00:00Z,30.3288,-87.8293,2.155,23.36,1111122 
DISL,ioos:station:DISL:BSCA:1,2017-01-03T22:30:00Z,30.3288,-87.8293,2.175,23.3,1111122 
DISL,ioos:station:DISL:BSCA:1,2017-01-03T23:00:00Z,30.3288,-87.8293,2.178,22.95,1111122 
DISL,ioos:station:DISL:BSCA:1,2017-01-03T23:30:00Z,30.3288,-87.8293,2.18,22.85,1111122 
DISL,ioos:station:DISL:BSCA:1,2017-01-04T00:00:00Z,30.3288,-87.8293,2.211,21.75,1111122 
DISL,ioos:station:DISL:BSCA:1,2017-01-04T00:30:00Z,30.3288,-87.8293,2.218,21.64,1111122 
DISL,ioos:station:DISL:BSCA:1,2017-01-04T01:00:00Z,30.3288,-87.8293,2.232,21.6,1111122 
DISL,ioos:station:DISL:BSCA:1,2017-01-04T01:30:00Z,30.3288,-87.8293,2.245,21.69,1111122 
DISL,ioos:station:DISL:BSCA:1,2017-01-04T02:00:00Z,30.3288,-87.8293,2.244,21.57,1111122 
DISL,ioos:station:DISL:BSCA:1,2017-01-04T02:30:00Z,30.3288,-87.8293,2.254,21.52,1111122 
DISL,ioos:station:DISL:BSCA:1,2017-01-04T03:00:00Z,30.3288,-87.8293,2.252,21.39,1111122 
DISL,ioos:station:DISL:BSCA:1,2017-01-04T03:30:00Z,30.3288,-87.8293,2.26,21.23,1111122 
DISL,ioos:station:DISL:BSCA:1,2017-01-04T04:00:00Z,30.3288,-87.8293,2.275,21.32,1111122 
DISL,ioos:station:DISL:BSCA:1,2017-01-04T04:30:00Z,30.3288,-87.8293,2.278,21.18,1111122 
DISL,ioos:station:DISL:BSCA:1,2017-01-04T05:00:00Z,30.3288,-87.8293,2.273,21.38,1111122 
DISL,ioos:station:DISL:BSCA:1,2017-01-04T05:30:00Z,30.3288,-87.8293,2.266,21.49,1111122 
DISL,ioos:station:DISL:BSCA:1,2017-01-04T06:00:00Z,30.3288,-87.8293,2.262,21.47,1111122 
DISL,ioos:station:DISL:BSCA:1,2017-01-04T06:30:00Z,30.3288,-87.8293,2.262,21.35,1111122 
DISL,ioos:station:DISL:BSCA:1,2017-01-04T07:00:00Z,30.3288,-87.8293,2.258,21.56,1111122 
DISL,ioos:station:DISL:BSCA:1,2017-01-04T07:30:00Z,30.3288,-87.8293,2.246,21.65,1111122 
DISL,ioos:station:DISL:BSCA:1,2017-01-04T08:00:00Z,30.3288,-87.8293,2.237,21.7,1111122 
DISL,ioos:station:DISL:BSCA:1,2017-01-04T08:30:00Z,30.3288,-87.8293,2.225,21.75,1111122 
DISL,ioos:station:DISL:BSCA:1,2017-01-04T09:00:00Z,30.3288,-87.8293,2.217,21.99,1111122 
DISL,ioos:station:DISL:BSCA:1,2017-01-04T09:30:00Z,30.3288,-87.8293,2.207,22.03,1111122 
DISL,ioos:station:DISL:BSCA:1,2017-01-04T10:00:00Z,30.3288,-87.8293,2.197,22.17,1111122 
DISL,ioos:station:DISL:BSCA:1,2017-01-04T10:30:00Z,30.3288,-87.8293,2.186,22.1,1111122 
DISL,ioos:station:DISL:BSCA:1,2017-01-04T11:00:00Z,30.3288,-87.8293,2.178,22.02,1111122 
DISL,ioos:station:DISL:BSCA:1,2017-01-04T11:30:00Z,30.3288,-87.8293,2.162,22.07,1111122 
DISL,ioos:station:DISL:BSCA:1,2017-01-04T12:00:00Z,30.3288,-87.8293,2.153,22.76,1111122 
DISL,ioos:station:DISL:BSCA:1,2017-01-04T12:30:00Z,30.3288,-87.8293,2.114,22.54,1111122 
DISL,ioos:station:DISL:BSCA:1,2017-01-04T13:00:00Z,30.3288,-87.8293,2.095,21.15,1111122 
DISL,ioos:station:DISL:BSCA:1,2017-01-04T13:30:00Z,30.3288,-87.8293,2.016,20.61,1111122 
DISL,ioos:station:DISL:BSCA:1,2017-01-04T14:00:00Z,30.3288,-87.8293,1.954,20.57,1111122 
DISL,ioos:station:DISL:BSCA:1,2017-01-04T14:30:00Z,30.3288,-87.8293,1.904,20.53,1111122 
DISL,ioos:station:DISL:BSCA:1,2017-01-04T15:00:00Z,30.3288,-87.8293,1.882,20.61,1111122 
DISL,ioos:station:DISL:BSCA:1,2017-01-04T15:30:00Z,30.3288,-87.8293,1.85,20.96,1111122 
DISL,ioos:station:DISL:BSCA:1,2017-01-04T16:00:00Z,30.3288,-87.8293,1.86,21.45,1111122 
DISL,ioos:station:DISL:BSCA:1,2017-01-04T16:30:00Z,30.3288,-87.8293,1.868,22.1,1111122 
DISL,ioos:station:DISL:BSCA:1,2017-01-04T17:00:00Z,30.3288,-87.8293,1.9,22.61,1111122 
DISL,ioos:station:DISL:BSCA:1,2017-01-04T17:30:00Z,30.3288,-87.8293,1.91,22.52,1111122 
DISL,ioos:station:DISL:BSCA:1,2017-01-04T18:00:00Z,30.3288,-87.8293,1.922,22.15,1111122 
DISL,ioos:station:DISL:BSCA:1,2017-01-04T18:30:00Z,30.3288,-87.8293,1.903,22.22,1111122 
DISL,ioos:station:DISL:BSCA:1,2017-01-04T19:00:00Z,30.3288,-87.8293,1.923,22.12,1111122 
DISL,ioos:station:DISL:BSCA:1,2017-01-04T19:30:00Z,30.3288,-87.8293,1.901,22.4,1111122 
DISL,ioos:station:DISL:BSCA:1,2017-01-04T20:00:00Z,30.3288,-87.8293,1.918,22.55,1111122 
DISL,ioos:station:DISL:BSCA:1,2017-01-04T20:30:00Z,30.3288,-87.8293,1.93,22.56,1111122 
DISL,ioos:station:DISL:BSCA:1,2017-01-04T21:00:00Z,30.3288,-87.8293,1.958,22.52,1111122 
DISL,ioos:station:DISL:BSCA:1,2017-01-04T21:30:00Z,30.3288,-87.8293,2.005,22.21,1111122 
DISL,ioos:station:DISL:BSCA:1,2017-01-04T22:00:00Z,30.3288,-87.8293,2.03,21.79,1111122 
DISL,ioos:station:DISL:BSCA:1,2017-01-04T22:30:00Z,30.3288,-87.8293,2.016,21.75,1111122 
DISL,ioos:station:DISL:BSCA:1,2017-01-04T23:00:00Z,30.3288,-87.8293,2.039,22.04,1111122 
DISL,ioos:station:DISL:BSCA:1,2017-01-04T23:30:00Z,30.3288,-87.8293,2.031,21.92,1111122 
DISL,ioos:station:DISL:BSCA:1,2017-01-05T00:00:00Z,30.3288,-87.8293,2.011,21.98,1111122 
DISL,ioos:station:DISL:BSCA:1,2017-01-05T00:30:00Z,30.3288,-87.8293,2.007,21.71,1111122 
DISL,ioos:station:DISL:BSCA:1,2017-01-05T01:00:00Z,30.3288,-87.8293,1.992,21.07,1111122 
DISL,ioos:station:DISL:BSCA:1,2017-01-05T01:30:00Z,30.3288,-87.8293,1.993,20.61,1111122 
DISL,ioos:station:DISL:BSCA:1,2017-01-05T02:00:00Z,30.3288,-87.8293,1.971,20.38,1111122 
DISL,ioos:station:DISL:BSCA:1,2017-01-05T02:30:00Z,30.3288,-87.8293,1.956,20.43,1111122 
DISL,ioos:station:DISL:BSCA:1,2017-01-05T03:00:00Z,30.3288,-87.8293,1.949,20.02,1111122 
DISL,ioos:station:DISL:BSCA:1,2017-01-05T03:30:00Z,30.3288,-87.8293,1.934,20.53,1111122 
DISL,ioos:station:DISL:BSCA:1,2017-01-05T04:00:00Z,30.3288,-87.8293,1.929,20.77,1111122 
DISL,ioos:station:DISL:BSCA:1,2017-01-05T04:30:00Z,30.3288,-87.8293,1.919,20.47,1111122 
DISL,ioos:station:DISL:BSCA:1,2017-01-05T05:00:00Z,30.3288,-87.8293,1.929,20.32,1111122 
DISL,ioos:station:DISL:BSCA:1,2017-01-05T05:30:00Z,30.3288,-87.8293,1.928,20.0,1111122 
DISL,ioos:station:DISL:BSCA:1,2017-01-05T06:00:00Z,30.3288,-87.8293,1.955,19.76,1111122 
DISL,ioos:station:DISL:BSCA:1,2017-01-05T06:30:00Z,30.3288,-87.8293,1.939,19.96,1111122 
DISL,ioos:station:DISL:BSCA:1,2017-01-05T07:00:00Z,30.3288,-87.8293,1.966,20.58,1111122 
DISL,ioos:station:DISL:BSCA:1,2017-01-05T07:30:00Z,30.3288,-87.8293,1.978,20.77,1111122 
DISL,ioos:station:DISL:BSCA:1,2017-01-05T08:00:00Z,30.3288,-87.8293,2.0,20.85,1111122 
DISL,ioos:station:DISL:BSCA:1,2017-01-05T08:30:00Z,30.3288,-87.8293,2.02,20.89,1111122 
DISL,ioos:station:DISL:BSCA:1,2017-01-05T09:00:00Z,30.3288,-87.8293,2.038,21.0,1111122 
DISL,ioos:station:DISL:BSCA:1,2017-01-05T09:30:00Z,30.3288,-87.8293,2.041,21.05,1111122 
DISL,ioos:station:DISL:BSCA:1,2017-01-05T10:00:00Z,30.3288,-87.8293,2.044,21.13,1111122 
DISL,ioos:station:DISL:BSCA:1,2017-01-05T10:30:00Z,30.3288,-87.8293,2.047,21.11,1111122 
DISL,ioos:station:DISL:BSCA:1,2017-01-05T11:00:00Z,30.3288,-87.8293,2.034,20.71,1111122 
DISL,ioos:station:DISL:BSCA:1,2017-01-05T11:30:00Z,30.3288,-87.8293,2.034,20.57,1111122 
DISL,ioos:station:DISL:BSCA:1,2017-01-05T12:00:00Z,30.3288,-87.8293,2.015,19.57,1111122 
DISL,ioos:station:DISL:BSCA:1,2017-01-05T12:30:00Z,30.3288,-87.8293,2.001,19.7,1111122 
DISL,ioos:station:DISL:BSCA:1,2017-01-05T13:00:00Z,30.3288,-87.8293,1.975,19.41,1111122 
DISL,ioos:station:DISL:BSCA:1,2017-01-05T13:30:00Z,30.3288,-87.8293,1.952,19.35,1111122 
DISL,ioos:station:DISL:BSCA:1,2017-01-05T14:00:00Z,30.3288,-87.8293,1.932,19.24,1111122 
DISL,ioos:station:DISL:BSCA:1,2017-01-05T14:30:00Z,30.3288,-87.8293,1.916,19.25,1111122 
DISL,ioos:station:DISL:BSCA:1,2017-01-05T15:00:00Z,30.3288,-87.8293,1.897,19.13,1111122 
DISL,ioos:station:DISL:BSCA:1,2017-01-05T15:30:00Z,30.3288,-87.8293,1.89,19.52,1111122 
DISL,ioos:station:DISL:BSCA:1,2017-01-05T16:00:00Z,30.3288,-87.8293,1.892,19.85,1111122 
DISL,ioos:station:DISL:BSCA:1,2017-01-05T16:30:00Z,30.3288,-87.8293,1.893,20.63,1111122 
DISL,ioos:station:DISL:BSCA:1,2017-01-05T17:00:00Z,30.3288,-87.8293,1.892,20.58,1111122 
DISL,ioos:station:DISL:BSCA:1,2017-01-05T17:30:00Z,30.3288,-87.8293,1.881,20.53,1111122 
DISL,ioos:station:DISL:BSCA:1,2017-01-05T18:00:00Z,30.3288,-87.8293,1.902,20.91,1111122 
DISL,ioos:station:DISL:BSCA:1,2017-01-05T18:30:00Z,30.3288,-87.8293,1.928,20.42,1111122 
DISL,ioos:station:DISL:BSCA:1,2017-01-05T19:00:00Z,30.3288,-87.8293,1.924,20.5,1111122 
DISL,ioos:station:DISL:BSCA:1,2017-01-05T19:30:00Z,30.3288,-87.8293,1.936,20.76,1111122 
DISL,ioos:station:DISL:BSCA:1,2017-01-05T20:00:00Z,30.3288,-87.8293,1.96,20.7,1111122 
DISL,ioos:station:DISL:BSCA:1,2017-01-05T20:30:00Z,30.3288,-87.8293,1.979,20.9,1111122 
DISL,ioos:station:DISL:BSCA:1,2017-01-05T21:00:00Z,30.3288,-87.8293,2.002,20.71,1111122 
DISL,ioos:station:DISL:BSCA:1,2017-01-05T21:30:00Z,30.3288,-87.8293,2.034,20.75,1111122 
DISL,ioos:station:DISL:BSCA:1,2017-01-05T22:00:00Z,30.3288,-87.8293,2.048,20.8,1111122 
DISL,ioos:station:DISL:BSCA:1,2017-01-05T22:30:00Z,30.3288,-87.8293,2.068,20.69,1111122 
DISL,ioos:station:DISL:BSCA:1,2017-01-05T23:00:00Z,30.3288,-87.8293,2.069,20.73,1111122 
DISL,ioos:station:DISL:BSCA:1,2017-01-05T23:30:00Z,30.3288,-87.8293,2.086,20.76,1111122 
DISL,ioos:station:DISL:BSCA:1,2017-01-06T00:00:00Z,30.3288,-87.8293,2.083,20.65,1111122 
DISL,ioos:station:DISL:BSCA:1,2017-01-06T00:30:00Z,30.3288,-87.8293,2.104,20.59,1111122 
DISL,ioos:station:DISL:BSCA:1,2017-01-06T01:00:00Z,30.3288,-87.8293,2.105,20.6,1111122 
DISL,ioos:station:DISL:BSCA:1,2017-01-06T01:30:00Z,30.3288,-87.8293,2.103,20.55,1111122 
DISL,ioos:station:DISL:BSCA:1,2017-01-06T02:00:00Z,30.3288,-87.8293,2.078,20.68,1111122 
DISL,ioos:station:DISL:BSCA:1,2017-01-06T02:30:00Z,30.3288,-87.8293,2.112,20.81,1111122 
DISL,ioos:station:DISL:BSCA:1,2017-01-06T03:00:00Z,30.3288,-87.8293,2.102,20.75,1111122 
DISL,ioos:station:DISL:BSCA:1,2017-01-06T03:30:00Z,30.3288,-87.8293,2.076,20.85,1111122 
DISL,ioos:station:DISL:BSCA:1,2017-01-06T04:00:00Z,30.3288,-87.8293,2.086,20.91,1111122 
DISL,ioos:station:DISL:BSCA:1,2017-01-06T04:30:00Z,30.3288,-87.8293,2.073,20.81,1111122 
DISL,ioos:station:DISL:BSCA:1,2017-01-06T05:00:00Z,30.3288,-87.8293,2.076,20.38,1111122 
DISL,ioos:station:DISL:BSCA:1,2017-01-06T05:30:00Z,30.3288,-87.8293,2.071,20.13,1111122 
DISL,ioos:station:DISL:BSCA:1,2017-01-06T06:00:00Z,30.3288,-87.8293,2.052,20.02,1111122 
DISL,ioos:station:DISL:BSCA:1,2017-01-06T06:30:00Z,30.3288,-87.8293,2.05,20.72,1111122 
DISL,ioos:station:DISL:BSCA:1,2017-01-06T07:00:00Z,30.3288,-87.8293,2.039,20.28,1111122 
DISL,ioos:station:DISL:BSCA:1,2017-01-06T07:30:00Z,30.3288,-87.8293,1.998,20.93,1111122 
DISL,ioos:station:DISL:BSCA:1,2017-01-06T08:00:00Z,30.3288,-87.8293,2.014,21.0,1111122 
DISL,ioos:station:DISL:BSCA:1,2017-01-06T08:30:00Z,30.3288,-87.8293,1.965,20.9,1111122 
DISL,ioos:station:DISL:BSCA:1,2017-01-06T09:00:00Z,30.3288,-87.8293,1.93,20.45,1111122 
DISL,ioos:station:DISL:BSCA:1,2017-01-06T09:30:00Z,30.3288,-87.8293,1.909,20.76,1111122 
DISL,ioos:station:DISL:BSCA:1,2017-01-06T10:00:00Z,30.3288,-87.8293,1.891,20.84,1111122 
DISL,ioos:station:DISL:BSCA:1,2017-01-06T10:30:00Z,30.3288,-87.8293,1.891,20.37,1111122 
DISL,ioos:station:DISL:BSCA:1,2017-01-06T11:00:00Z,30.3288,-87.8293,1.897,20.14,1111122 
DISL,ioos:station:DISL:BSCA:1,2017-01-06T11:30:00Z,30.3288,-87.8293,1.876,20.6,1111122 
DISL,ioos:station:DISL:BSCA:1,2017-01-06T12:00:00Z,30.3288,-87.8293,1.867,20.52,1111122 
DISL,ioos:station:DISL:BSCA:1,2017-01-06T12:30:00Z,30.3288,-87.8293,1.852,19.94,1111122 
DISL,ioos:station:DISL:BSCA:1,2017-01-06T13:00:00Z,30.3288,-87.8293,1.872,20.01,1111122 
DISL,ioos:station:DISL:BSCA:1,2017-01-06T13:30:00Z,30.3288,-87.8293,1.876,20.38,1111122 
DISL,ioos:station:DISL:BSCA:1,2017-01-06T14:00:00Z,30.3288,-87.8293,1.883,20.35,1111122 
DISL,ioos:station:DISL:BSCA:1,2017-01-06T14:30:00Z,30.3288,-87.8293,1.871,19.5,1111122 
DISL,ioos:station:DISL:BSCA:1,2017-01-06T15:00:00Z,30.3288,-87.8293,1.856,19.53,1111122 
DISL,ioos:station:DISL:BSCA:1,2017-01-06T15:30:00Z,30.3288,-87.8293,1.837,19.3,1111122 
DISL,ioos:station:DISL:BSCA:1,2017-01-06T16:00:00Z,30.3288,-87.8293,1.817,19.25,1111122 
DISL,ioos:station:DISL:BSCA:1,2017-01-06T16:30:00Z,30.3288,-87.8293,1.798,19.29,1111122 
DISL,ioos:station:DISL:BSCA:1,2017-01-06T17:00:00Z,30.3288,-87.8293,1.816,19.29,1111122 
DISL,ioos:station:DISL:BSCA:1,2017-01-06T17:30:00Z,30.3288,-87.8293,1.85,19.25,1111122 
DISL,ioos:station:DISL:BSCA:1,2017-01-06T18:00:00Z,30.3288,-87.8293,1.931,19.33,1111122 
DISL,ioos:station:DISL:BSCA:1,2017-01-06T18:30:00Z,30.3288,-87.8293,1.927,19.32,1111122 
DISL,ioos:station:DISL:BSCA:1,2017-01-06T19:00:00Z,30.3288,-87.8293,1.944,19.19,1111122 
DISL,ioos:station:DISL:BSCA:1,2017-01-06T19:30:00Z,30.3288,-87.8293,1.884,19.31,1111122 
DISL,ioos:station:DISL:BSCA:1,2017-01-06T20:00:00Z,30.3288,-87.8293,1.903,19.07,1111122 
DISL,ioos:station:DISL:BSCA:1,2017-01-06T20:30:00Z,30.3288,-87.8293,1.907,19.03,1111122 